User: anonymous   Login
Location: Caltech
(34.1382°N, 118.1253°W)
Time: 15:18:33
(UTC-07:00)
Language:

HO-68 - Orbit

View from above orbital plane
View from above orbital plane
View from above satellite
View from above satellite

Ground track
Ground track

The orbit data is extracted from the following two-line orbital elements,

1 36122U 09072B   16176.50692540 -.00000059  00000-0 -43517-4 0  9994
2 36122 100.1416 212.0688 0007524 343.4007  16.6874 13.16334645313572
Epoch (UTC): 24 June 2016 12:09:58
Eccentricity: 0.0007524
inclination: 100.1416°
perigee height: 1193 km
apogee height: 1204 km
right ascension of ascending node: 212.0688°
argument of perigee: 343.4007°
revolutions per day: 13.16334645
mean anomaly at epoch: 16.6874°
orbit number at epoch: 31357

The dashed part of the orbit path shows where the satellite is in the earth's shadow,  

DLR